Location: Castro Valley
(37.6940°N, 122.0850°W)
Time: 22:30:18
(UTC-07:00)

PANSAT - Visible Passes

Search period start: 16 September 2014 00:00
Search period end: 26 September 2014 00:00
Orbit: 491 x 497 km, 28.5° (Epoch: 16 September)

Date Brightness Start Highest point End Pass type
(mag) Time Alt. Az. Time Alt. Az. Time Alt. Az.
16 Sep 9.3 05:49:01 15° SW 05:50:50 20° S 05:53:43 10° SE visible
17 Sep 9.2 05:25:20 20° S 05:25:38 20° S 05:28:31 10° SE visible
18 Sep 9.7 05:01:41 17° SSE 05:01:41 17° SSE 05:03:18 10° SE visible
19 Sep 9.8 06:13:18 10° SW 06:14:46 12° SSW 06:16:15 10° S visible
20 Sep 9.8 05:48:58 11° SSW 05:49:33 11° SSW 05:50:49 10° S visible
